Tracking 28336 objects as of 4-Dec-2023
HD Live streaming from Space Station
objects crossing your sky now

CZ-6A DEB

Track CZ-6A DEB now!
10-day predictions


NORAD ID: 54350
Int'l Code: 2022-151CV
Perigee: 738.1 km
Apogee: 836.8 km
Inclination: 98.8 °
Period: 100.5 minutes
Semi major axis: 7158 km
RCS: Unknown
Launch date: November 11, 2022
Source: People's Republic of China (PRC)
Launch site: Taiyaun Space Center, China (TSC)

Note: This is SATELLITE DEBRIS
Your satellite tracking list
Your tracking list is empty




NASA's NSSDC Master Catalog

Two Line Element Set (TLE):
1 54350U 22151CV  23337.57865998  .00000893  00000-0  33144-3 0  9991
2 54350  98.8039 354.4094 0068914 186.0965 173.9387 14.33417859 54819
Source of the keplerian elements: AFSPC